COSMOS 1375

Satellite information

Favourite Embed

Satellite Type and Status

PAYLOADIN ORBIT

Key statistics

Satellite COSMOS 1375 at a glance.

Uptime

15897

Days in orbit

Revolutions

≈ 13.8

Per day

Orbit

LEO

Low Earth Orbit

Inclination

65.8

Latest

Satellite identification and parameters

Extended collection of information and parameters for COSMOS 1375.

Object identification

Identified? True

Debris? False

Object name: COSMOS 1375

International designator: 1982-055A

Object number (NORAD): 13259

Object ID (CCSDS): 13259

Country: COMMONWEALTH OF INDEPENDENT STATES (CIS)

Current information (Y/N): Y

RCS size: MEDIUM

Orbital parameters

Period: 103.986 minutes

Inclination: 65.8294 deg

SMA: 7325.051 km

Apoapsis: 968.825 km

Periapsis: 925.006 km

RAAN: 154.5841 deg

Eccentricy: 0.00299105

Argument of periapsis: 264.8858 deg

Mean anomaly: 94.8796 deg

Mean motion: 13.84799253 rev/day

Mean motion (dot): 0.00000472 rev/day2

B* drag term: 0.00049040109 1/REarth

Two-line elements (TLE)

Creation date: Dec. 12, 2025, 10:14 a.m.

Reference frame: TEME

Reference center: EARTH

Epoch: Dec. 12, 2025, 2:18 a.m. UTC

TLE line 0: 0 COSMOS 1375

TLE line 1: 1 13259U 82055A 25346.09598930 .00000472 00000-0 49040-3 0 9996

TLE line 2: 2 13259 65.8294 154.5841 0029910 264.8858 94.8796 13.84799253188175

Live tracking on map

Real-time ground track for satellite COSMOS 1375.

In-orbit conjunctions

A list of the most updated potential collisions computed for object COSMOS 1375.

Target Orbit TCA Probability of collision Miss distance Type
COSMOS 1275 DEB LEO 2025-11-06 06:09:06 0.0001102352 720.0 (m) DEBRIS
FENGYUN 1C DEB SSO 2024-06-02 18:31:56 0.0002029964 62.0 (m) DEBRIS

Associated space launch

ASAT target satellite

COSMOS 1375 was lifted into orbit during the mission ‘Kosmos-3M | DS-P1-M 16’, on board a Kosmos-3M space rocket.

The launch took place on June 6, 1982, 5:10 p.m. from 132/2.

For more information about the launch, click the button.

Launch to space Kosmos-3M | DS-P1-M 16
Kosmos-3M | DS-P1-M 16

Agency: N/A

Status: Launch Successful

Launch date: June 6, 1982, 5:10 p.m. UTC

Rocket: Kosmos-3M

Launch pad: 132/2

Location: Plesetsk Cosmodrome, Russian Federation

...

Latest news about this satellite

There are no fresh news available about this satellite. Check back as we update our databases every day.


Newsletter sign-up

Weekly statistics, charts and insights to help you stay on top of the space industry.